Accueil
METAR-TAF:

METAR-TAF

Aéroports :

Hoorn-a, Pays-Bas

Plate-forme pétrolière

latitude: 52-55-05N, longitude: 4-09-01E, altitude: 41 m

Observation

Le bulletin a été fait il y a 37 minutes, à 11:55 UTC
Vent 20 kt de est/nord-est
Température 1°C
Humidité 69%
Pression 1024 hPa
Visibilité 10 km ou plus
Quelques nuages à une hauteur de 1300 ft
Nuages épars à une hauteur de 1600 ft
Nuages fragmentés à une hauteur de 2300 ft

METAR: EHQE 231155Z AUTO 06020KT 9999 FEW013 SCT016 BKN023 01/M04 Q1024 W///H///

Heure: 13:32 (12:32 UTC)


TAF: absent

Observations et prévisions météorologiques de plus de 4000 aéroports (messages METAR et TAF).

Les stations disponibles sont représentées par des disques jaunes et rouges sur la carte.

Passer la souris dessus pour voir le nom de la station.

Cliquer dessus pour voir les observations et prévisions météorologiques.

Pour changer de carte: cliquez sur les boutons verts avec une croix noire pour zoomer, sur le bouton vert avec un tiret pour effectuer un zoom arrière, ou sur les flèches vertes pour les cartes adjacentes.


METAR-TAF: